SL-16 DEB, 22352

Orbit data source: Space-Track

SL-16 DEB, 22352 is space debris in LEO originally from a launch on Fri, 25 Dec 1992 UTC launched from the Tyuratam Missile And Space Complex (TTMTR). Debris objects in space refer to the collection of defunct objects orbiting the Earth. Examples of debris include non-operational satellites, rocket bodies, and fragments generated from explosions, collisions, or faulty payload assembly.

Loading next visibility...
Identifier
22352, 1992-093AR
Orbit
LEO
Country
Flag of CISCIS
Related business
Manufacturer
Unknown
Mission
Spacecraft
Bus & Motor
Unknown
Mass
Unknown
Launch date (UTC)
1992-12-25 (33 years ago)
Launch vehicle
Unknown
Launch site
Tyuratam Missile And Space Complex (TTMTR)
Object type
Payload
Rocket body
Debris
Shape & HBR
Unknown shape, 0.3 m
Radar Cross Section
Medium (>0.1 m² and <1 m²)

Expand to show TLE details & history
Last TLE update: 21 hours ago

TLE from 21 hours ago
0 SL-16 DEB
1 22352U 92093AR  25349.94866891  .00000017  00000-0  41846-4 0  9996
2 22352  70.8914 253.8550 0074516  41.2917  40.3846 14.00707010683181
Epoch: 2025-12-15T22:46Z
TLE epoch observation values (Epoch: 2025-12-15T22:46:04.993Z)
Latitude
69.52429°
Longitude
-105.14856°
Altitude
861.725 km
Speed
7.449 km/s
True Right ascension
21h 24m 50s
True Declination
69° 24' 47"
Sunlit
Object was in daylight at epoch
Visualization orbit readout
Latitude
Unknown
Longitude
Unknown
Altitude
Unknown
Speed
Unknown
Apparent Right ascension
Unknown
Apparent Declination
Unknown
Sunlit
N/A
Visualization observer readout
Local Sidereal Time
18:30:47
Azimuth
Unknown
Elevation
Unknown
Doppler factor
Unknown
Orbital elements
Apogee altitude
943.451 km
Perigee altitude
835.143 km
Semi-major axis
7,267.434 km
Eccentricity
0.00745
Inclination
70.8914°
RAAN
253.855°
Arg. of periapsis
41.2917°
True anomaly
40.94179°
Mean anomaly
40.3846°
Eccentric anomaly
40.6628°
Mean motion
3.50325 °/min
Orbital period
102.76 mins
BSTAR
0.000041846
Loading maneuver chart data...
Computing Atmospheric mass density...
Loading historical data...
Loading historical data...
Loading historical data...
Loading historical data...
Loading historical data...
Loading historical data...
Loading historical data...

Documentation

Showing up to 5 results
|